Location: Poughquag
(41.6090°N, 73.6820°W)
Time: 08:05:42
(UTC-05:00)

SR - Pass Details

Date: 13 December 2023
Orbit: 574 x 868 km, 66.7° (Epoch: 25 February)

Event Time Altitude Azimuth Distance (km) Brightness Sun altitude
Rises 18:32:59 0° 326° (NW) 3,431 ? -23.1°
Reaches altitude 10° 18:35:33 10° 322° (NW) 2,467 ? -23.6°
Maximum altitude 18:41:07 56° 246° (WSW) 956 ? -24.6°
Drops below altitude 10° 18:46:17 10° 169° (S) 2,290 ? -25.6°
Sets 18:48:36 0° 165° (SSE) 3,165 ? -26.0°
